パンスターズ彗星

P/2014 V1 ( PanSTARRS )

English version
Home page
Updated on June 11, 2016

---------------------------------------------------------------------

・ プロフィール

発見日 2014年11月9日
発見光度 20.1等
発見者 Pan-STARRS 1 telescope (Haleakala)

・ 写真集

・ 軌道要素

Epoch 2015 Jan. 18.0 TT = JDT 2457040.5
T 2015 Jan. 20.62444 TT                                 MPCW
q   2.5687019            (2000.0)            P               Q
n   0.07642548     Peri.  177.72742     +0.96192580     +0.25779866
a   5.4993402      Node   166.26201     -0.25640049     +0.96619504
e   0.5329073      Incl.   22.47030     -0.09464436     +0.00264472
P  12.9
From 40 observations 2014 Nov. 9-17, mean residual 0".5.

・ 光度変化

        m1 = 12.5 + 5 logΔ + 10.0 log r

---------------------------------------------------------------------

軌道要素はM.P.E.C. 2015-N31に掲載されたものです。
光度グラフはComet for Windowsで作成したものです。

---------------------------------------------------------------------

Copyright(C) Seiichi Yoshida (comet@aerith.net). All rights reserved.